DW9025 Weather Reports


time (UTC)temp
F
wind
direction
speed
knots
gust
knots
rain 1hr
in
rain 24hr
in
rain mn
in
humidity
%
barometer
mb
20260506211546 58 189 0.9 6.1 0.00 0.00 0.00 96 1005.0
20260506210047 58 162 0.0 2.6 0.00 0.00 0.00 96 1005.0
20260506204526 58 210 0.9 7.8 0.00 0.00 0.00 95 1005.2
20260506203031 58 118 0.0 5.2 0.00 0.00 0.00 95 1005.2
20260506201507 58 217 0.9 4.3 0.00 0.00 0.00 95 1005.3
20260506200005 58 105 0.9 6.1 0.00 0.00 0.00 95 1005.4
20260506194559 58 201 0.9 8.7 0.00 0.00 0.00 94 1005.5
20260506193044 58 116 0.9 6.1 0.00 0.00 0.00 94 1005.7
20260506191534 59 224 0.0 6.1 0.00 0.00 0.00 94 1005.8
20260506190027 59 136 0.0 6.1 0.00 0.00 0.00 93 1005.8
20260506184508 60 137 0.0 7.8 0.00 0.00 0.00 91 1005.7
20260506183010 61 229 0.0 6.1 0.00 0.00 0.00 89 1006.0
20260506181548 62 238 0.0 4.3 0.00 0.00 0.00 86 1006.2
20260506180051 63 99 0.9 7.0 0.00 0.00 0.00 81 1006.4
20260506174532 65 162 0.9 5.2 0.00 0.00 0.00 76 1006.3
20260506173028 67 28 3.5 10.4 0.00 0.00 0.00 70 1006.4
20260506171513 69 131 0.9 9.6 0.00 0.00 0.00 66 1006.4
20260506170009 69 110 1.7 7.8 0.00 0.00 0.00 65 1006.3
20260506164558 69 158 1.7 9.6 0.00 0.00 0.00 64 1006.4
20260506163049 69 136 1.7 7.8 0.00 0.00 0.00 64 1006.5
20260506161530 69 217 0.0 8.7 0.00 0.00 0.00 64 1007.0
20260506160030 69 37 2.6 9.6 0.00 0.00 0.00 63 1007.0
20260506154508 69 193 0.0 9.6 0.00 0.00 0.00 65 1007.2
20260506153006 69 157 0.0 5.2 0.00 0.00 0.00 67 1007.3
20260506151548 68 212 1.7 12.2 0.00 0.00 0.00 67 1007.5
20260506150051 69 193 0.9 7.8 0.00 0.00 0.00 67 1007.7
20260506144524 68 207 1.7 9.6 0.00 0.00 0.00 70 1007.8
20260506143022 67 155 0.9 8.7 0.00 0.00 0.00 71 1007.9
20260506141502 66 131 0.9 6.1 0.00 0.00 0.00 75 1007.8
20260506140119 65 187 0.9 6.1 0.00 0.00 0.00 75 1007.7
20260506134541 65 113 0.0 4.3 0.00 0.00 0.00 78 1007.8
20260506133044 63 141 0.0 5.2 0.00 0.00 0.00 80 1007.9
20260506131517 62 125 1.7 7.8 0.00 0.00 0.00 82 1008.2
20260506130011 61 219 0.9 6.1 0.00 0.00 0.00 84 1008.5
20260506124555 61 158 1.7 7.0 0.00 0.00 0.00 85 1008.5
20260506123050 61 61 0.9 6.1 0.00 0.00 0.00 85 1008.4
20260506121530 59 113 0.9 4.3 0.00 0.00 0.00 88 1008.5
20260506120036 59 203 0.0 4.3 0.00 0.00 0.00 89 1008.5
20260506114508 58 207 0.0 4.3 0.00 0.00 0.00 90 1008.5
20260506113009 57 187 0.9 6.1 0.00 0.00 0.00 91 1008.8
20260506111551 57 197 0.0 3.5 0.00 0.00 0.00 91 1008.9
20260506110046 56 177 0.9 7.0 0.00 0.00 0.00 92 1008.8
20260506104527 56 219 0.9 4.3 0.00 0.00 0.00 93 1008.7
20260506103031 55 203 0.9 3.5 0.00 0.00 0.00 93 1008.8
20260506101509 55 154 0.0 4.3 0.00 0.00 0.00 93 1008.7
20260506100008 55 239 0.0 5.2 0.00 0.00 0.00 92 1008.7
20260506094548 55 213 1.7 7.0 0.00 0.00 0.00 92 1008.5
20260506093047 55 137 0.0 5.2 0.00 0.00 0.00 92 1008.5
20260506091529 56 231 0.0 4.3 0.00 0.00 0.00 91 1008.6
20260506090026 56 78 0.0 4.3 0.00 0.00 0.00 91 1008.6
20260506084510 56 207 0.0 5.2 0.00 0.00 0.00 90 1008.7
20260506083009 56 212 0.0 7.0 0.00 0.00 0.00 89 1008.7
20260506081547 56 140 1.7 5.2 0.00 0.00 0.00 88 1008.6
20260506073025 57 231 0.9 5.2 0.00 0.00 0.00 86 1008.8
20260506071507 57 105 0.0 4.3 0.00 0.00 0.00 86 1008.7
20260506061554 59 145 0.0 6.1 0.00 0.00 0.00 82 1008.6
20260506060128 59 232 0.9 8.7 0.00 0.00 0.00 81 1008.6
20260506044617 60 145 0.9 4.3 0.00 0.00 0.00 76 1009.1
20260506043036 60 191 0.9 7.0 0.00 0.00 0.00 76 1009.2
20260506041535 60 102 0.9 6.1 0.00 0.00 0.00 76 1009.1
20260506040032 59 115 0.9 5.2 0.00 0.00 0.00 76 1009.2
20260506034515 59 218 0.9 6.1 0.00 0.00 0.00 77 1009.2
20260506033057 58 186 0.0 6.1 0.00 0.00 0.00 77 1009.1
20260506031558 58 186 0.0 4.3 0.00 0.00 0.00 77 1009.1
20260506030043 59 134 0.0 4.3 0.00 0.00 0.00 76 1009.1
20260506024540 59 166 0.0 3.5 0.00 0.00 0.00 76 1009.0
20260506023028 59 207 0.0 3.5 0.00 0.00 0.00 75 1009.0
20260506021531 60 177 0.9 5.2 0.00 0.00 0.00 73 1009.1
20260506020004 60 195 0.9 5.2 0.00 0.00 0.00 72 1009.1
20260506014503 61 130 0.0 7.0 0.00 0.00 0.00 71 1008.9
20260506013045 61 204 1.7 7.8 0.00 0.00 0.00 70 1008.7
20260506011544 62 169 0.9 5.2 0.00 0.00 0.00 70 1008.5
20260506010043 62 211 0.0 4.3 0.00 0.00 0.00 70 1008.4
20260506004527 63 126 0.0 6.1 0.00 0.00 0.00 68 1008.3
20260506003010 64 225 2.6 7.8 0.00 0.00 0.00 66 1008.1
20260506001508 65 190 0.9 9.6 0.00 0.00 0.00 64 1007.8
20260506000050 66 195 0.0 10.4 0.00 0.00 0.00 61 1007.7
20260505234605 67 146 0.0 8.7 0.00 0.00 0.00 60 1007.3
20260505233037 68 138 0.0 5.2 0.00 0.00 0.00 58 1007.1
20260505231533 68 191 0.0 8.7 0.00 0.00 0.00 57 1006.9
20260505230113 69 201 1.7 6.1 0.00 0.00 0.00 56 1006.8
20260505224511 70 141 1.7 7.8 0.00 0.00 0.00 56 1006.5
20260505223052 70 103 1.7 9.6 0.00 0.00 0.00 55 1006.3
20260505221551 71 216 0.9 7.8 0.00 0.00 0.00 55 1006.0
20260505220031 72 119 0.9 6.1 0.00 0.00 0.00 55 1006.0
20260505214557 73 136 0.9 6.1 0.00 0.00 0.00 53 1006.2
20260505213012 74 147 0.9 9.6 0.00 0.00 0.00 50 1006.1